Tracking 22441 objects as of 1-Mar-2021
HD Live streaming from Space Station
objects crossing your sky now

FREGAT R/B

Track FREGAT R/B now!


NORAD ID: 37345
Int'l Code: 2011-001B
Perigee: 34,426.6 km
Apogee: 35,773.9 km
Inclination: 6.6 °
Period: 1,400.8 minutes
Semi major axis: 41471 km
RCS: 8.569 m2 (large)
Launch date: January 20, 2011
Source: Commonwealth of Independent States (former USSR) (CIS)
Launch site: TYURATAM MISSILE AND SPACE COMPLEX (TTMTR)

Note: This is a ROCKET BODY
aabbcc
Your satellite tracking list
Your tracking list is empty




NASA's NSSDC Master Catalog

Two Line Element Set (TLE):
1 37345U 11001B   21059.77727650  .00000022  00000-0  00000-0 0  9997
2 37345   6.5674  56.1812 0162439  22.3321 168.5921  1.02797432 40510
Source of the keplerian elements: AFSPC